Regional Weather Roundup
Issued by NWS Jackson, KY

Home | Current Version | Previous Version | Text Only | Print | Product List | Glossary On
Versions: 1 2 3 4 5 6 7 8 9 10 11 12 13 14 15 16 17 18 19 20 21 22 23 24 25 26 27 28 29 30 31 32 33 34 35 36 37 38 39 40 41 42 43 44 45 46 47 48 49 50
000
ASUS43 KJKL 300810
RWRJKL

EAST KENTUCKY HOURLY WEATHER ROUNDUP
NATIONAL WEATHER SERVICE JACKSON KY
400 AM EDT SUN APR 30 2017

NOTE: "FAIR" INDICATES FEW OR NO CLOUDS BELOW 12,000 FEET WITH
NO SIGNIFICANT WEATHER AND/OR OBSTRUCTIONS TO VISIBILITY.

* THESE REPORTS ARE NOT UNDER NWS QUALITY CONTROL AND MAY NOT
  REPORT WEATHER SUCH AS PRECIPITATION AND FOG.

KYZ079-080-083-085-087-088-110-112-115-119-120-300900
...EASTERN KENTUCKY...

CITY           SKY/WX    TMP DP  RH WIND       PRES   REMARKS
JACKSON        CLEAR     71  62  73 VRB3      30.01F
LONDON         CLEAR     75  62  64 S9        30.00F
SOMERSET*      CLEAR     72  63  73 S3        29.99S
MONTICELLO*    CLEAR     73  66  78 VRB6      29.99F
WILLIAMSBURG*  SUNNY     72  64  78 SE5       30.00F
MIDDLESBORO*   PTCLDY    66  63  90 CALM      30.04F
HARLAN APT*    PTSUNNY   68  61  77 CALM      30.05F
PIKE CO APT*     N/A     70  66  88 SE5       30.04S
MOREHEAD APT*  LGT RAIN  72  63  73 S5        30.00S
$$

KYZ035-036-041-042-044-050-067-078-099-300900
...CENTRAL KENTUCKY...

CITY           SKY/WX    TMP DP  RH WIND       PRES   REMARKS
MT STERLING*   PTCLDY    70  63  78 SW3       29.99F
FLEMING/MASON* CLOUDY    72  64  74 S7        29.98S
DANVILLE*      CLEAR     70  63  78 S6        29.96F
LEXINGTON      PTCLDY    72  63  73 SE7       29.96F
FRANKFORT      CLEAR     73  62  68 S6        29.91F
LOUISVILLE     CLEAR     75  64  68 S10       29.89S
LEBANON*         N/A     73  64  73 S10G18    29.94R
GLASGOW*       CLOUDY    71  63  74 S7        29.92R
BOWLING GREEN  MOCLDY    75  65  70 S13G18    29.89F
$$

KYZ091>093-OHZ055-061-077-WVZ005-015-034-035-042-300900
...SOUTHERN OHIO/WEST VIRGINIA...

CITY           SKY/WX    TMP DP  RH WIND       PRES   REMARKS
COVINGTON      MOCLDY    71  64  78 S6        29.92R
COLUMBUS       CLOUDY    58  57  97 NE5       29.98S
DAYTON         CLOUDY    51  51 100 E7        29.96F
WILMINGTON     CLOUDY    61  61 100 N5        29.96S FOG
HUNTINGTON     PTCLDY    72  63  73 S6        29.98S
CHARLESTON     CLEAR     68  64  87 CALM      30.00S
PINEVILLE*     PTCLDY    61  60  97 MISG      30.13S FOG
BECKLEY        CLEAR     67  60  78 SE6       30.12R
BLUEFIELD      PTCLDY    68  57  68 S9        30.15S
LOGAN CO APT*    N/A     72  63  73 S6        30.04S
$$

VAZ002-007-008-TNZ017-027-036-066-071-300900
...SOUTHWEST VIRGINIA/EAST TENNESSEE...

CITY           SKY/WX    TMP DP  RH WIND       PRES   REMARKS
WISE*          CLEAR     70  59  68 S12       30.12F
JONESVILLE*      N/A     64  64 100 CALM      30.08S
ABINGDON*      CLEAR     66  61  85 CALM      30.12S
BRISTOL        CLEAR     65  61  87 CALM      30.09R
MORRISTOWN*    SUNNY     66  63  88 CALM      30.05S
SEVIERVILLE*   SUNNY     70  57  64 SW5       30.03F
LAFOLLETTE*    SUNNY     73  64  73 SW9G18    30.05F
OAK RIDGE      CLEAR     72  64  76 CALM      30.03F
CROSSVILLE     PTCLDY    69  64  84 S10G21    30.03F
NASHVILLE      CLOUDY    75  64  68 S14       29.91F
$$

...KEY TO REMARKS...
VSB - VISIBILITY IN MILES
WCI - WIND CHILL INDEX
HX  - HEAT INDEX

$$



USA.gov is the U.S. government's official web portal to all federal, state and local government web resources and services.